TimeMST,TemperatureF,Dew PointF,Humidity,Sea Level PressureIn,VisibilityMPH,Wind Direction,Wind SpeedMPH,Gust SpeedMPH,PrecipitationIn,Events,Conditions,WindDirDegrees,DateUTC
12:15 AM,39.2,37.4,93,29.90,7.0,Calm,Calm,-,N/A,,Mostly Cloudy,0,2013-03-05 07:15:00
12:35 AM,39.2,39.2,100,29.90,7.0,Calm,Calm,-,N/A,,Overcast,0,2013-03-05 07:35:00
12:55 AM,41.0,39.2,93,29.89,10.0,SE,3.5,-,N/A,,Overcast,130,2013-03-05 07:55:00
1:15 AM,41.0,39.2,93,29.89,10.0,Calm,Calm,-,N/A,,Overcast,0,2013-03-05 08:15:00
1:35 AM,41.0,39.2,93,29.88,10.0,Calm,Calm,-,N/A,,Overcast,0,2013-03-05 08:35:00
1:55 AM,41.0,39.2,93,29.88,10.0,SE,3.5,-,N/A,,Overcast,140,2013-03-05 08:55:00
2:15 AM,41.0,39.2,93,29.87,10.0,East,3.5,-,N/A,,Overcast,100,2013-03-05 09:15:00
2:35 AM,41.0,39.2,93,29.86,10.0,Calm,Calm,-,N/A,,Overcast,0,2013-03-05 09:35:00
2:55 AM,41.0,39.2,93,29.86,10.0,WSW,3.5,-,N/A,,Drizzle,240,2013-03-05 09:55:00
3:15 AM,41.0,39.2,93,29.86,7.0,Calm,Calm,-,N/A,Rain,Light Rain,0,2013-03-05 10:15:00
3:35 AM,42.8,41.0,93,29.85,7.0,NE,3.5,-,0.02,Rain,Light Rain,40,2013-03-05 10:35:00
3:55 AM,42.8,41.0,93,29.85,10.0,Calm,Calm,-,0.03,Rain,Light Rain,0,2013-03-05 10:55:00
4:15 AM,41.0,41.0,100,29.85,7.0,Calm,Calm,-,0.01,Rain,Light Rain,0,2013-03-05 11:15:00
4:35 AM,42.8,41.0,93,29.84,10.0,Calm,Calm,-,0.01,Rain,Rain,0,2013-03-05 11:35:00
4:55 AM,41.0,41.0,100,29.83,10.0,Calm,Calm,-,0.02,Rain,Light Rain,0,2013-03-05 11:55:00
5:15 AM,42.8,39.2,87,29.83,7.0,Calm,Calm,-,0.01,Rain,Light Rain,0,2013-03-05 12:15:00
6:15 AM,41.0,41.0,100,29.83,5.0,Calm,Calm,-,0.02,Rain,Light Rain,0,2013-03-05 13:15:00
6:35 AM,41.0,41.0,100,29.83,7.0,Calm,Calm,-,0.04,Rain,Light Rain,0,2013-03-05 13:35:00
6:55 AM,41.0,41.0,100,29.83,5.0,Calm,Calm,-,0.06,Rain,Rain,0,2013-03-05 13:55:00
7:15 AM,42.8,41.0,93,29.83,7.0,Calm,Calm,-,0.02,Rain,Light Rain,0,2013-03-05 14:15:00
7:35 AM,42.8,41.0,93,29.83,7.0,Calm,Calm,-,0.04,Rain,Light Rain,0,2013-03-05 14:35:00
7:55 AM,42.8,41.0,93,29.82,5.0,Calm,Calm,-,0.05,Rain,Light Rain,0,2013-03-05 14:55:00
8:15 AM,42.8,41.0,93,29.82,7.0,Calm,Calm,-,N/A,,Light Drizzle,0,2013-03-05 15:15:00
8:35 AM,42.8,41.0,93,29.83,7.0,Calm,Calm,-,N/A,,Drizzle,0,2013-03-05 15:35:00
8:55 AM,42.8,42.8,100,29.83,5.0,Calm,Calm,-,0.01,,Drizzle,0,2013-03-05 15:55:00
9:15 AM,42.8,41.0,93,29.83,7.0,Calm,Calm,-,N/A,,Drizzle,0,2013-03-05 16:15:00
9:35 AM,42.8,42.8,100,29.83,7.0,ENE,3.5,-,N/A,Rain,Rain,70,2013-03-05 16:35:00
9:55 AM,42.8,42.8,100,29.83,10.0,Calm,Calm,-,N/A,,Light Drizzle,0,2013-03-05 16:55:00
10:15 AM,42.8,42.8,100,29.82,10.0,Calm,Calm,-,0.01,,Light Drizzle,0,2013-03-05 17:15:00
10:35 AM,44.6,42.8,93,29.82,10.0,Calm,Calm,-,0.01,,Light Drizzle,0,2013-03-05 17:35:00
10:55 AM,44.6,42.8,93,29.82,10.0,Calm,Calm,-,0.01,,Light Drizzle,0,2013-03-05 17:55:00
11:15 AM,44.6,42.8,93,29.82,10.0,Calm,Calm,-,N/A,,Drizzle,0,2013-03-05 18:15:00
11:35 AM,44.6,42.8,93,29.82,7.0,Calm,Calm,-,N/A,Rain,Light Rain,0,2013-03-05 18:35:00
11:55 AM,44.6,42.8,93,29.81,7.0,Calm,Calm,-,0.01,Rain,Rain,0,2013-03-05 18:55:00
12:15 PM,46.4,42.8,87,29.80,7.0,Calm,Calm,-,N/A,,Drizzle,0,2013-03-05 19:15:00
12:35 PM,46.4,42.8,87,29.81,7.0,Calm,Calm,-,0.01,,Drizzle,0,2013-03-05 19:35:00
12:55 PM,46.4,42.8,87,29.80,7.0,Calm,Calm,-,0.01,Rain,Light Rain,0,2013-03-05 19:55:00
1:15 PM,46.4,42.8,87,29.80,10.0,Calm,Calm,-,0.02,Rain,Light Rain,0,2013-03-05 20:15:00
1:35 PM,46.4,42.8,87,29.80,7.0,West,3.5,-,0.02,,Drizzle,270,2013-03-05 20:35:00
1:55 PM,46.4,44.6,93,29.81,7.0,WNW,5.8,-,0.03,Rain,Rain,290,2013-03-05 20:55:00
2:15 PM,46.4,44.6,93,29.80,5.0,West,4.6,-,0.02,Rain,Light Rain,260,2013-03-05 21:15:00
2:35 PM,46.4,44.6,93,29.79,10.0,West,4.6,-,0.03,Rain,Light Rain,260,2013-03-05 21:35:00
2:55 PM,46.4,44.6,93,29.79,7.0,Calm,Calm,-,0.03,Rain,Rain,0,2013-03-05 21:55:00
3:15 PM,46.4,42.8,87,29.78,10.0,WSW,6.9,-,0.01,Rain,Light Rain,240,2013-03-05 22:15:00
3:35 PM,46.4,42.8,87,29.78,10.0,WSW,5.8,-,0.01,Rain,Light Rain,240,2013-03-05 22:35:00
3:55 PM,46.4,42.8,87,29.78,10.0,SSW,5.8,-,0.01,,Light Drizzle,210,2013-03-05 22:55:00
4:15 PM,46.4,42.8,87,29.78,10.0,SW,6.9,-,N/A,,Light Drizzle,230,2013-03-05 23:15:00
4:35 PM,44.6,42.8,93,29.78,10.0,SW,3.5,-,N/A,,Drizzle,220,2013-03-05 23:35:00
4:55 PM,44.6,42.8,93,29.78,7.0,SW,4.6,-,N/A,,Drizzle,230,2013-03-05 23:55:00
5:15 PM,44.6,42.8,93,29.77,7.0,Calm,Calm,-,N/A,,Light Drizzle,0,2013-03-06 00:15:00
5:35 PM,44.6,42.8,93,29.77,4.0,Calm,Calm,-,N/A,,Drizzle,0,2013-03-06 00:35:00
5:55 PM,44.6,42.8,93,29.77,2.5,Calm,Calm,-,0.01,,Drizzle,0,2013-03-06 00:55:00
6:15 PM,44.6,42.8,93,29.76,2.5,Calm,Calm,-,N/A,,Drizzle,0,2013-03-06 01:15:00
6:35 PM,44.6,42.8,93,29.76,3.0,Calm,Calm,-,N/A,,Overcast,0,2013-03-06 01:35:00
6:55 PM,44.6,42.8,93,29.76,4.0,Calm,Calm,-,N/A,,Light Drizzle,0,2013-03-06 01:55:00
7:15 PM,44.6,42.8,93,29.75,10.0,Calm,Calm,-,0.01,,Overcast,0,2013-03-06 02:15:00
7:35 PM,44.6,42.8,93,29.75,7.0,Calm,Calm,-,0.01,,Light Drizzle,0,2013-03-06 02:35:00
7:55 PM,44.6,42.8,93,29.74,10.0,Calm,Calm,-,0.01,,Overcast,0,2013-03-06 02:55:00
8:15 PM,44.6,42.8,93,29.73,10.0,Calm,Calm,-,N/A,,Overcast,0,2013-03-06 03:15:00
8:35 PM,42.8,42.8,100,29.73,10.0,Calm,Calm,-,N/A,,Overcast,0,2013-03-06 03:35:00
8:55 PM,42.8,42.8,100,29.72,10.0,Calm,Calm,-,N/A,,Overcast,0,2013-03-06 03:55:00
9:15 PM,42.8,42.8,100,29.71,10.0,Calm,Calm,-,N/A,,Overcast,0,2013-03-06 04:15:00
9:35 PM,42.8,42.8,100,29.70,5.0,Calm,Calm,-,N/A,,Overcast,0,2013-03-06 04:35:00
9:55 PM,42.8,42.8,100,29.70,3.0,Calm,Calm,-,N/A,,Overcast,0,2013-03-06 04:55:00
10:15 PM,42.8,42.8,100,29.69,4.0,Calm,Calm,-,N/A,,Drizzle,0,2013-03-06 05:15:00
10:35 PM,42.8,42.8,100,29.69,4.0,Calm,Calm,-,N/A,,Drizzle,0,2013-03-06 05:35:00
10:55 PM,42.8,42.8,100,29.68,4.0,Calm,Calm,-,N/A,,Drizzle,0,2013-03-06 05:55:00
11:15 PM,42.8,42.8,100,29.68,5.0,Calm,Calm,-,N/A,,Light Drizzle,0,2013-03-06 06:15:00
11:35 PM,42.8,42.8,100,29.67,10.0,Calm,Calm,-,N/A,,Overcast,0,2013-03-06 06:35:00
11:55 PM,42.8,42.8,100,29.65,5.0,Calm,Calm,-,N/A,,Overcast,0,2013-03-06 06:55:00